When you browse on this site, cookies collect data to enhance your experience and personalize the content and advertising you see.
Visit our Privacy Policy to learn more. By continuing to use the site, you agree to this use of cookies and data.
  • Em Portugal
  • Lista de países
  • Para 7 dias
  • Temperatura da água
  • Mapas de satélite
  • Mapa do tempo
  • Widgets de tempo
  • user-avatar
    Iniciar Sessão

    Previsão horária em Sozopol

    Hoje, 23 Maio, Quinta-feira

    Tempo Temperatura Precipitação Vento Pressão Humidade
    00:00 +17°C° 0 mm 2 m/s 756 mmHg 81%
    01:00 +17°C° 0 mm 2 m/s 756 mmHg 83%
    02:00 +16°C° 0 mm 2 m/s 755 mmHg 84%
    03:00 +16°C° 0 mm 2 m/s 755 mmHg 84%
    04:00 +16°C° 0 mm 2 m/s 755 mmHg 85%
    05:00 +16°C° 0 mm 2 m/s 755 mmHg 86%
    06:00 +17°C° 0 mm 2 m/s 755 mmHg 79%
    07:00 +19°C° 0 mm 2 m/s 755 mmHg 73%
    08:00 +22°C° 0 mm 1 m/s 755 mmHg 66%
    09:00 +23°C° 0 mm 1 m/s 755 mmHg 62%
    10:00 +25°C° 0 mm 1 m/s 755 mmHg 58%
    11:00 +26°C° 0 mm 2 m/s 755 mmHg 54%
    12:00 +26°C° 0.1 mm 2 m/s 755 mmHg 55%
    13:00 +26°C° 0.1 mm 2 m/s 755 mmHg 55%
    14:00 +26°C° 0.1 mm 2 m/s 754 mmHg 56%
    15:00 +26°C° 0.1 mm 2 m/s 754 mmHg 58%
    16:00 +25°C° 0.1 mm 2 m/s 754 mmHg 59%
    17:00 +25°C° 0.1 mm 2 m/s 754 mmHg 61%
    18:00 +23°C° 0.3 mm 1 m/s 754 mmHg 67%
    19:00 +21°C° 0.3 mm 1 m/s 754 mmHg 72%
    20:00 +19°C° 0.3 mm 1 m/s 754 mmHg 77%
    21:00 +19°C° 0 mm 1 m/s 754 mmHg 78%
    22:00 +19°C° 0 mm 1 m/s 754 mmHg 79%
    23:00 +18°C° 0 mm 1 m/s 754 mmHg 80%

    Amanhã, 24 Maio, Sexta-feira

    Tempo Temperatura Precipitação Vento Pressão Humidade
    00:00 +18°C° 0 mm 1 m/s 754 mmHg 82%
    01:00 +18°C° 0 mm 1 m/s 754 mmHg 83%
    02:00 +16°C° 0 mm 1 m/s 754 mmHg 85%
    03:00 +16°C° 0.2 mm 1 m/s 753 mmHg 86%
    04:00 +16°C° 0.2 mm 2 m/s 753 mmHg 88%
    05:00 +16°C° 0.2 mm 2 m/s 753 mmHg 89%
    06:00 +16°C° 0.7 mm 2 m/s 753 mmHg 88%
    07:00 +18°C° 0.7 mm 1 m/s 753 mmHg 87%
    08:00 +19°C° 0.7 mm 1 m/s 754 mmHg 86%
    09:00 +19°C° 0.1 mm 2 m/s 754 mmHg 80%
    10:00 +20°C° 0.1 mm 2 m/s 754 mmHg 73%
    11:00 +21°C° 0.1 mm 2 m/s 754 mmHg 66%
    12:00 +23°C° 0 mm 2 m/s 753 mmHg 63%
    13:00 +24°C° 0 mm 1 m/s 753 mmHg 60%
    14:00 +24°C° 0 mm 1 m/s 753 mmHg 58%
    15:00 +24°C° 0.1 mm 1 m/s 753 mmHg 61%
    16:00 +23°C° 0.1 mm 2 m/s 752 mmHg 64%
    17:00 +23°C° 0.1 mm 2 m/s 752 mmHg 67%
    18:00 +21°C° 0 mm 2 m/s 752 mmHg 72%
    19:00 +19°C° 0 mm 2 m/s 752 mmHg 77%
    20:00 +18°C° 0 mm 2 m/s 752 mmHg 83%
    21:00 +18°C° 0 mm 2 m/s 753 mmHg 83%
    22:00 +17°C° 0 mm 3 m/s 753 mmHg 83%
    23:00 +17°C° 0 mm 3 m/s 753 mmHg 84%

    Depois de amanhã, 25 Maio, Sábado

    Tempo Temperatura Precipitação Vento Pressão Humidade
    00:00 +17°C° 0.1 mm 3 m/s 753 mmHg 84%
    01:00 +16°C° 0.1 mm 3 m/s 753 mmHg 85%
    02:00 +15°C° 0.1 mm 4 m/s 753 mmHg 86%
    03:00 +15°C° 0 mm 4 m/s 753 mmHg 86%
    04:00 +14°C° 0 mm 4 m/s 753 mmHg 86%
    05:00 +14°C° 0 mm 4 m/s 753 mmHg 86%
    06:00 +17°C° 0 mm 4 m/s 754 mmHg 81%
    07:00 +18°C° 0 mm 4 m/s 754 mmHg 76%
    08:00 +20°C° 0 mm 3 m/s 755 mmHg 71%
    09:00 +21°C° 0 mm 3 m/s 755 mmHg 65%
    10:00 +22°C° 0 mm 3 m/s 755 mmHg 60%
    11:00 +25°C° 0 mm 3 m/s 755 mmHg 54%
    12:00 +25°C° 0.1 mm 3 m/s 755 mmHg 54%
    13:00 +25°C° 0.1 mm 2 m/s 755 mmHg 54%
    14:00 +26°C° 0.1 mm 2 m/s 754 mmHg 53%
    15:00 +26°C° 0.2 mm 2 m/s 754 mmHg 57%
    16:00 +25°C° 0.2 mm 3 m/s 754 mmHg 60%
    17:00 +25°C° 0.2 mm 3 m/s 754 mmHg 63%
    18:00 +23°C° 0 mm 2 m/s 754 mmHg 68%
    19:00 +20°C° 0 mm 2 m/s 754 mmHg 73%
    20:00 +20°C° 0 mm 1 m/s 755 mmHg 78%
    21:00 +18°C° 0 mm 2 m/s 755 mmHg 79%
    22:00 +18°C° 0 mm 2 m/s 755 mmHg 80%
    23:00 +17°C° 0 mm 2 m/s 756 mmHg 82%

    26 Maio, Domingo

    Tempo Temperatura Precipitação Vento Pressão Humidade
    00:00 +17°C° 0 mm 2 m/s 756 mmHg 83%
    01:00 +17°C° 0 mm 2 m/s 756 mmHg 84%
    02:00 +17°C° 0 mm 2 m/s 756 mmHg 85%
    03:00 +16°C° 0 mm 2 m/s 756 mmHg 85%
    04:00 +16°C° 0 mm 2 m/s 756 mmHg 85%
    05:00 +16°C° 0 mm 2 m/s 756 mmHg 86%
    06:00 +18°C° 0 mm 2 m/s 756 mmHg 79%
    07:00 +20°C° 0 mm 2 m/s 757 mmHg 73%
    08:00 +23°C° 0 mm 2 m/s 757 mmHg 66%
    09:00 +25°C° 0 mm 1 m/s 757 mmHg 62%
    10:00 +26°C° 0 mm 1 m/s 757 mmHg 57%
    11:00 +27°C° 0 mm 1 m/s 757 mmHg 53%
    12:00 +27°C° 0 mm 2 m/s 757 mmHg 54%
    13:00 +27°C° 0 mm 3 m/s 757 mmHg 55%
    14:00 +27°C° 0 mm 4 m/s 757 mmHg 56%
    15:00 +26°C° 0 mm 4 m/s 757 mmHg 57%
    16:00 +26°C° 0 mm 4 m/s 757 mmHg 59%
    17:00 +26°C° 0 mm 4 m/s 756 mmHg 61%
    18:00 +23°C° 0 mm 4 m/s 756 mmHg 67%
    19:00 +21°C° 0 mm 4 m/s 757 mmHg 73%
    20:00 +20°C° 0 mm 4 m/s 757 mmHg 78%
    21:00 +19°C° 0 mm 3 m/s 757 mmHg 80%
    22:00 +19°C° 0 mm 3 m/s 757 mmHg 82%
    23:00 +19°C° 0 mm 3 m/s 757 mmHg 83%

    27 Maio, Segunda-feira

    Tempo Temperatura Precipitação Vento Pressão Humidade
    00:00 +19°C° 0 mm 2 m/s 757 mmHg 83%
    01:00 +18°C° 0 mm 2 m/s 757 mmHg 83%
    02:00 +18°C° 0 mm 2 m/s 757 mmHg 82%
    03:00 +18°C° 0 mm 2 m/s 757 mmHg 81%
    04:00 +18°C° 0 mm 2 m/s 756 mmHg 80%
    05:00 +18°C° 0 mm 1 m/s 756 mmHg 78%
    06:00 +19°C° 0 mm 2 m/s 756 mmHg 72%
    07:00 +21°C° 0 mm 2 m/s 757 mmHg 66%
    08:00 +24°C° 0 mm 2 m/s 757 mmHg 60%
    09:00 +25°C° 0 mm 3 m/s 757 mmHg 57%
    10:00 +26°C° 0 mm 3 m/s 757 mmHg 53%
    11:00 +28°C° 0 mm 4 m/s 757 mmHg 50%
    12:00 +28°C° 0 mm 4 m/s 756 mmHg 50%
    13:00 +28°C° 0 mm 5 m/s 756 mmHg 50%
    14:00 +28°C° 0 mm 5 m/s 756 mmHg 50%
    15:00 +27°C° 0 mm 5 m/s 755 mmHg 54%
    16:00 +26°C° 0 mm 5 m/s 755 mmHg 59%
    17:00 +25°C° 0 mm 5 m/s 755 mmHg 63%
    18:00 +23°C° 0 mm 4 m/s 755 mmHg 68%
    19:00 +21°C° 0 mm 4 m/s 755 mmHg 73%
    20:00 +20°C° 0 mm 3 m/s 755 mmHg 78%
    21:00 +19°C° 0 mm 3 m/s 755 mmHg 77%
    22:00 +19°C° 0 mm 3 m/s 755 mmHg 77%
    23:00 +18°C° 0 mm 2 m/s 755 mmHg 76%

    28 Maio, Terça-feira

    Tempo Temperatura Precipitação Vento Pressão Humidade
    00:00 +18°C° 0 mm 2 m/s 754 mmHg 73%
    01:00 +18°C° 0 mm 2 m/s 754 mmHg 70%
    02:00 +19°C° 0 mm 1 m/s 754 mmHg 68%
    03:00 +19°C° 0 mm 1 m/s 754 mmHg 68%
    04:00 +19°C° 0 mm 1 m/s 754 mmHg 68%
    05:00 +19°C° 0 mm 1 m/s 753 mmHg 68%
    06:00 +21°C° 0.2 mm 1 m/s 753 mmHg 70%
    07:00 +23°C° 0.2 mm 1 m/s 753 mmHg 71%
    08:00 +25°C° 0.2 mm 1 m/s 753 mmHg 72%
    09:00 +27°C° 0 mm 2 m/s 753 mmHg 61%
    10:00 +29°C° 0 mm 2 m/s 753 mmHg 50%
    11:00 +31°C° 0 mm 3 m/s 753 mmHg 39%
    12:00 +31°C° 0 mm 3 m/s 753 mmHg 38%
    13:00 +33°C° 0 mm 3 m/s 753 mmHg 38%
    14:00 +33°C° 0 mm 4 m/s 752 mmHg 38%
    15:00 +33°C° 0 mm 4 m/s 752 mmHg 40%
    16:00 +31°C° 0 mm 3 m/s 752 mmHg 42%
    17:00 +31°C° 0 mm 3 m/s 752 mmHg 45%
    18:00 +28°C° 0 mm 3 m/s 752 mmHg 47%
    19:00 +26°C° 0 mm 3 m/s 752 mmHg 50%
    20:00 +24°C° 0 mm 3 m/s 753 mmHg 53%
    21:00 +22°C° 0 mm 3 m/s 753 mmHg 51%
    22:00 +21°C° 0 mm 4 m/s 753 mmHg 50%
    23:00 +21°C° 0 mm 4 m/s 753 mmHg 48%
    Mostrar mais